N1BFO Weather Reports


Display with metric or nautical units.
time (UTC)temp
F
wind
direction
speed
MPH
gust
MPH
rain 1hr
in
rain 24hr
in
rain mn
in
humidity
%
barometer
mb
20260505100041 53 274 0.0 4.0 0.00 0.00 0.00 76 1009.0
20260505095527 53 301 0.0 4.0 0.00 0.00 0.00 76 1009.0
20260505095028 52 249 1.0 6.0 0.00 0.00 0.00 77 1009.0
20260505094539 52 0 0.0 6.0 0.00 0.00 0.00 76 1009.0
20260505094029 52 276 0.0 3.0 0.00 0.00 0.00 77 1009.0
20260505093529 52 120 0.0 5.0 0.00 0.00 0.00 77 1009.1
20260505093040 52 290 0.0 5.0 0.00 0.00 0.00 76 1009.1
20260505092529 52 277 0.0 5.0 0.00 0.00 0.00 76 1009.0
20260505092029 52 0 0.0 3.0 0.00 0.00 0.00 77 1009.0
20260505091538 52 240 0.0 3.0 0.00 0.00 0.00 77 1009.1
20260505091027 51 280 0.0 2.0 0.00 0.00 0.00 77 1008.9
20260505090527 51 0 0.0 1.0 0.00 0.00 0.00 77 1008.9
20260505090050 51 0 0.0 1.0 0.00 0.00 0.00 77 1009.0
20260505085526 51 0 0.0 1.0 0.00 0.00 0.00 77 1009.1
20260505085027 51 257 0.0 1.0 0.00 0.00 0.00 77 1009.2
20260505084556 51 0 0.0 1.0 0.00 0.00 0.00 77 1009.2
20260505084025 51 0 0.0 2.0 0.00 0.00 0.00 77 1009.1
20260505083530 51 281 0.0 4.0 0.00 0.00 0.00 77 1009.2
20260505083057 51 0 0.0 4.0 0.00 0.00 0.00 77 1009.3
20260505082528 51 0 0.0 1.0 0.00 0.00 0.00 77 1009.3
20260505082028 51 0 0.0 4.0 0.00 0.00 0.00 76 1009.3
20260505081553 51 280 0.0 4.0 0.00 0.00 0.00 77 1009.3
20260505081030 51 0 0.0 3.0 0.00 0.00 0.00 77 1009.3
20260505080528 50 0 0.0 2.0 0.00 0.00 0.00 77 1009.2
20260505080047 50 0 0.0 1.0 0.00 0.00 0.00 77 1009.2
20260505075529 51 0 0.0 1.0 0.00 0.00 0.00 76 1009.3
20260505075026 51 0 0.0 1.0 0.00 0.00 0.00 76 1009.3
20260505074541 51 0 0.0 1.0 0.00 0.00 0.00 75 1009.3
20260505074027 51 0 0.0 1.0 0.00 0.00 0.00 75 1009.4
20260505073526 51 0 0.0 1.0 0.00 0.00 0.00 75 1009.4
20260505073052 52 0 0.0 3.0 0.00 0.00 0.00 74 1009.4
20260505072526 52 0 0.0 3.0 0.00 0.00 0.00 74 1009.4
20260505072029 52 281 0.0 4.0 0.00 0.00 0.00 74 1009.4
20260505071546 52 0 0.0 4.0 0.00 0.00 0.00 74 1009.4
20260505071029 52 259 0.0 4.0 0.00 0.00 0.00 74 1009.5
20260505070533 52 0 0.0 1.0 0.00 0.00 0.00 74 1009.5
20260505070044 51 0 0.0 1.0 0.00 0.00 0.00 74 1009.6
20260505065527 51 0 0.0 1.0 0.00 0.00 0.00 74 1009.5
20260505065026 52 0 0.0 1.0 0.00 0.00 0.00 74 1009.5
20260505064538 51 0 0.0 1.0 0.00 0.00 0.00 74 1009.5
20260505064028 51 0 0.0 1.0 0.00 0.00 0.00 74 1009.5
20260505063526 52 0 0.0 1.0 0.00 0.00 0.00 73 1009.6
20260505063040 52 0 0.0 4.0 0.00 0.00 0.00 73 1009.6
20260505062526 52 0 0.0 4.0 0.00 0.00 0.00 72 1009.6
20260505062026 52 0 0.0 4.0 0.00 0.00 0.00 72 1009.5
20260505061535 52 0 0.0 4.0 0.00 0.00 0.00 72 1009.6
20260505061026 52 0 0.0 4.0 0.00 0.00 0.00 73 1009.5
20260505060526 52 257 0.0 1.0 0.00 0.00 0.00 72 1009.7
20260505060056 52 0 0.0 0.0 0.00 0.00 0.00 72 1009.7
20260505055527 52 0 0.0 0.0 0.00 0.00 0.00 71 1009.6
20260505055026 53 0 0.0 1.0 0.00 0.00 0.00 70 1009.6
20260505054540 53 0 0.0 1.0 0.00 0.00 0.00 70 1009.7
20260505054027 53 0 0.0 3.0 0.00 0.00 0.00 69 1009.7
20260505053525 53 0 0.0 3.0 0.00 0.00 0.00 69 1009.7
20260505053038 53 0 0.0 2.0 0.00 0.00 0.00 69 1009.8
20260505052526 53 0 0.0 2.0 0.00 0.00 0.00 69 1009.7
20260505052026 53 0 0.0 2.0 0.00 0.00 0.00 68 1009.8
20260505051539 54 0 0.0 4.0 0.00 0.00 0.00 68 1009.7
20260505051027 54 0 0.0 4.0 0.00 0.00 0.00 68 1009.7
20260505050526 53 0 0.0 3.0 0.00 0.00 0.00 68 1009.6
20260505041549 55 0 0.0 3.0 0.00 0.00 0.00 64 1009.7
20260505041027 55 0 0.0 4.0 0.00 0.00 0.00 64 1009.7
20260505040530 55 280 0.0 4.0 0.00 0.00 0.00 63 1009.6
20260505040041 55 0 1.0 4.0 0.00 0.00 0.00 62 1009.6
20260505035529 55 0 0.0 4.0 0.00 0.00 0.00 62 1009.6
20260505035026 55 0 0.0 4.0 0.00 0.00 0.00 62 1009.6
20260505034537 55 0 0.0 5.0 0.00 0.00 0.00 62 1009.5
20260505034027 56 0 0.0 5.0 0.00 0.00 0.00 61 1009.5
20260505033527 56 194 1.0 5.0 0.00 0.00 0.00 61 1009.5
20260505033040 56 262 0.0 5.0 0.00 0.00 0.00 61 1009.5
20260505032526 56 124 0.0 1.0 0.00 0.00 0.00 61 1009.5
20260505032027 56 294 0.0 2.0 0.00 0.00 0.00 60 1009.6
20260505031539 56 0 0.0 2.0 0.00 0.00 0.00 60 1009.5
20260505031027 56 0 0.0 2.0 0.00 0.00 0.00 60 1009.5
20260505030524 56 0 0.0 3.0 0.00 0.00 0.00 59 1009.4
20260505030048 57 276 0.0 3.0 0.00 0.00 0.00 59 1009.4
20260505025527 57 0 0.0 3.0 0.00 0.00 0.00 58 1009.4
20260505025027 57 0 0.0 3.0 0.00 0.00 0.00 57 1009.4
20260505024542 57 0 0.0 3.0 0.00 0.00 0.00 57 1009.3
20260505024023 57 116 0.0 3.0 0.00 0.00 0.00 57 1009.5
20260505023525 57 0 1.0 3.0 0.00 0.00 0.00 57 1009.5
20260505023034 58 150 0.0 3.0 0.00 0.00 0.00 56 1009.4
20260505022524 58 0 0.0 3.0 0.00 0.00 0.00 55 1009.5
20260505022025 58 281 0.0 6.0 0.00 0.00 0.00 55 1009.6
20260505021540 58 0 1.0 6.0 0.00 0.00 0.00 54 1009.6
20260505021025 58 0 1.0 5.0 0.00 0.00 0.00 54 1009.5
20260505020525 58 0 0.0 3.0 0.00 0.00 0.00 54 1009.5
20260505020041 59 0 0.0 6.0 0.00 0.00 0.00 53 1009.6
20260505015524 59 276 1.0 6.0 0.00 0.00 0.00 53 1009.5
20260505015024 59 271 1.0 5.0 0.00 0.00 0.00 52 1009.4
20260505014559 59 207 1.0 4.0 0.00 0.00 0.00 52 1009.4
20260505014026 60 288 0.0 3.0 0.00 0.00 0.00 51 1009.3
20260505013526 60 279 0.0 7.0 0.00 0.00 0.00 51 1009.3
20260505013046 60 292 1.0 7.0 0.00 0.00 0.00 50 1009.2
20260505012527 60 195 1.0 7.0 0.00 0.00 0.00 50 1009.1
20260505012023 61 284 0.0 7.0 0.00 0.00 0.00 50 1009.0
20260505011545 61 141 1.0 7.0 0.00 0.00 0.00 49 1008.9
20260505011027 61 261 1.0 7.0 0.00 0.00 0.00 50 1008.8
20260505010525 61 314 1.0 7.0 0.00 0.00 0.00 49 1008.8
20260505010051 61 251 0.0 8.0 0.00 0.00 0.00 49 1008.7
20260505005529 61 139 1.0 8.0 0.00 0.00 0.00 49 1008.6
20260505005026 62 271 1.0 7.0 0.00 0.00 0.00 48 1008.4
20260505004547 62 279 1.0 7.0 0.00 0.00 0.00 48 1008.2
20260505004026 62 154 0.0 7.0 0.00 0.00 0.00 48 1008.0
20260505003523 62 250 1.0 10.0 0.00 0.00 0.00 46 1007.9
20260505003053 63 169 1.0 10.0 0.00 0.00 0.00 47 1007.7
20260505002523 63 89 1.0 7.0 0.00 0.00 0.00 46 1007.6
20260505002023 63 79 1.0 7.0 0.00 0.00 0.00 45 1007.5
20260505001537 63 297 2.0 7.0 0.00 0.00 0.00 45 1007.4
20260505001027 63 288 2.0 9.0 0.00 0.00 0.00 45 1007.4
20260505000523 64 141 1.0 9.0 0.00 0.00 0.00 44 1007.2
20260505000046 64 281 2.0 9.0 0.00 0.00 0.00 44 1007.2
20260504235523 64 108 1.0 8.0 0.00 0.00 0.00 44 1007.1
20260504235027 65 250 1.0 8.0 0.00 0.00 0.00 43 1007.0
20260504234543 65 162 1.0 6.0 0.00 0.00 0.00 42 1006.9
20260504234026 65 273 2.0 5.0 0.00 0.00 0.00 41 1006.7
20260504233524 66 212 2.0 8.0 0.00 0.00 0.00 41 1006.6
20260504233038 66 269 1.0 8.0 0.00 0.00 0.00 39 1006.6
20260504232527 67 269 2.0 8.0 0.00 0.00 0.00 38 1006.5
20260504232025 67 0 2.0 6.0 0.00 0.00 0.00 37 1006.4
20260504231537 67 197 1.0 4.0 0.00 0.00 0.00 35 1006.2
20260504231025 68 99 0.0 4.0 0.00 0.00 0.00 35 1006.2
20260504230524 68 210 1.0 6.0 0.00 0.00 0.00 35 1006.1
20260504230038 68 267 1.0 6.0 0.00 0.00 0.00 35 1006.1
20260504225523 68 259 1.0 4.0 0.00 0.00 0.00 34 1006.0
20260504225024 69 0 0.0 5.0 0.00 0.00 0.00 34 1005.9
20260504224538 69 79 1.0 5.0 0.00 0.00 0.00 33 1005.9
20260504224027 69 259 1.0 5.0 0.00 0.00 0.00 33 1005.8
20260504223527 69 0 1.0 5.0 0.00 0.00 0.00 33 1005.8
20260504223057 70 0 1.0 7.0 0.00 0.00 0.00 34 1005.8
20260504222527 70 0 1.0 8.0 0.00 0.00 0.00 33 1005.8
20260504222023 70 195 2.0 8.0 0.00 0.00 0.00 32 1005.8
20260504221537 70 135 2.0 6.0 0.00 0.00 0.00 33 1005.9
20260504221027 70 142 1.0 6.0 0.00 0.00 0.00 33 1005.8
20260504220525 70 215 1.0 7.0 0.00 0.00 0.00 33 1005.8
20260504220039 70 153 1.0 7.0 0.00 0.00 0.00 33 1005.8
20260504215524 70 232 2.0 6.0 0.00 0.00 0.00 32 1005.9
20260504215026 71 173 1.0 8.0 0.00 0.00 0.00 33 1005.9
20260504214537 71 259 2.0 8.0 0.00 0.00 0.00 32 1005.9
20260504214027 71 277 2.0 5.0 0.00 0.00 0.00 32 1005.8
20260504213523 71 350 1.0 6.0 0.00 0.00 0.00 32 1005.8
20260504213043 71 94 2.0 8.0 0.00 0.00 0.00 32 1005.8
20260504212526 71 286 2.0 8.0 0.00 0.00 0.00 31 1005.8
20260504212024 71 20 1.0 6.0 0.00 0.00 0.00 32 1005.8
20260504211613 71 285 2.0 6.0 0.00 0.00 0.00 31 1005.9
20260504211025 71 274 2.0 8.0 0.00 0.00 0.00 31 1005.8
20260504210529 71 160 1.0 8.0 0.00 0.00 0.00 31 1005.7
20260504210046 71 290 2.0 8.0 0.00 0.00 0.00 31 1005.8
20260504205525 71 228 0.0 5.0 0.00 0.00 0.00 31 1005.8
20260504205023 72 181 1.0 7.0 0.00 0.00 0.00 29 1005.8
20260504204538 72 203 2.0 7.0 0.00 0.00 0.00 32 1005.8
20260504204023 72 304 2.0 6.0 0.00 0.00 0.00 29 1005.8
20260504203524 73 181 1.0 6.0 0.00 0.00 0.00 30 1005.7
20260504203037 72 287 1.0 7.0 0.00 0.00 0.00 30 1005.8
20260504202527 73 136 3.0 7.0 0.00 0.00 0.00 30 1005.8
20260504202024 73 287 2.0 6.0 0.00 0.00 0.00 29 1005.7
20260504201534 73 143 1.0 7.0 0.00 0.00 0.00 28 1005.7
20260504201026 72 93 1.0 8.0 0.00 0.00 0.00 30 1005.7
20260504200527 72 254 2.0 9.0 0.00 0.00 0.00 29 1005.7
20260504200044 72 158 3.0 9.0 0.00 0.00 0.00 29 1005.8
20260504195526 73 108 2.0 7.0 0.00 0.00 0.00 29 1005.8
20260504195027 73 295 2.0 8.0 0.00 0.00 0.00 28 1005.8
20260504194548 73 288 2.0 8.0 0.00 0.00 0.00 27 1005.9
20260504194024 73 77 3.0 8.0 0.00 0.00 0.00 27 1005.9
20260504193526 73 195 2.0 7.0 0.00 0.00 0.00 29 1005.8
20260504193038 72 257 3.0 11.0 0.00 0.00 0.00 28 1005.8
20260504192526 72 140 2.0 18.0 0.00 0.00 0.00 28 1005.8
20260504192024 73 291 4.0 18.0 0.00 0.00 0.00 27 1005.9
20260504191542 73 158 4.0 13.0 0.00 0.00 0.00 28 1005.7
20260504191025 73 150 1.0 8.0 0.00 0.00 0.00 29 1005.8
20260504190526 72 59 2.0 12.0 0.00 0.00 0.00 29 1005.8
20260504190044 72 101 4.0 12.0 0.00 0.00 0.00 28 1005.9
20260504185524 72 121 3.0 12.0 0.00 0.00 0.00 28 1006.3
20260504185024 72 152 3.0 15.0 0.00 0.00 0.00 29 1006.2
20260504184548 72 160 4.0 15.0 0.00 0.00 0.00 28 1006.3
20260504184026 73 142 2.0 9.0 0.00 0.00 0.00 28 1006.4
20260504183524 72 115 2.0 8.0 0.00 0.00 0.00 31 1006.4
20260504183040 72 186 2.0 8.0 0.00 0.00 0.00 31 1006.5
20260504182526 72 233 3.0 8.0 0.00 0.00 0.00 32 1006.6
20260504182027 72 160 2.0 15.0 0.00 0.00 0.00 31 1006.6
20260504181538 72 293 3.0 15.0 0.00 0.00 0.00 27 1006.4
20260504181026 71 287 3.0 15.0 0.00 0.00 0.00 28 1006.4
20260504180525 71 73 3.0 17.0 0.00 0.00 0.00 29 1006.4
20260504180039 71 249 4.0 17.0 0.00 0.00 0.00 29 1006.6
20260504175528 72 280 3.0 11.0 0.00 0.00 0.00 30 1006.6
20260504175029 72 110 2.0 13.0 0.00 0.00 0.00 29 1006.6
20260504174540 72 79 2.0 13.0 0.00 0.00 0.00 29 1007.0
20260504174024 72 201 3.0 11.0 0.00 0.00 0.00 28 1006.8
20260504173526 72 255 3.0 11.0 0.00 0.00 0.00 30 1006.8
20260504173042 72 80 1.0 9.0 0.00 0.00 0.00 33 1006.8
20260504172525 71 315 3.0 9.0 0.00 0.00 0.00 31 1006.9
20260504172025 71 188 4.0 13.0 0.00 0.00 0.00 31 1006.9
20260504171540 70 170 3.0 13.0 0.00 0.00 0.00 30 1006.9
20260504171025 71 166 4.0 13.0 0.00 0.00 0.00 31 1007.0
20260504170524 71 238 3.0 12.0 0.00 0.00 0.00 33 1007.0
20260504151029 68 290 3.0 10.0 0.00 0.00 0.00 33 1008.5
20260504150526 68 62 3.0 17.0 0.00 0.00 0.00 34 1008.4
20260504141024 64 237 3.0 12.0 0.00 0.00 0.00 38 1008.8
20260504140527 64 53 3.0 12.0 0.00 0.00 0.00 37 1008.9
20260504130528 60 209 2.0 6.0 0.00 0.00 0.00 42 1009.6
20260504110528 49 174 0.0 1.0 0.00 0.02 0.00 60 1009.7
20260504100527 44 0 0.0 0.0 0.00 0.02 0.00 65 1009.7